Allentown, PA

12:09 AM EDT on April 24, 2017 (GMT -0400)
Lehigh Valley International

Weather History for KABE - May, 2013

Change the Weather History Date:

Thursday, May 16, 2013

  Actual Average Record
Temperature  
Mean Temperature 68 °F 60 °F  
Max Temperature 83 °F 72 °F 89 °F (1951)
Min Temperature 52 °F 48 °F 37 °F (1999)
Degree Days  
Heating Degree Days 0 6  
Month to date heating degree days 123 130  
Since 1 July heating degree days 5332 5700  
Cooling Degree Days 3 1  
Month to date cooling degree days 3 10  
Year to date cooling degree days 11 15  
Growing Degree Days 17 (Base 50)    
Moisture  
Dew Point 52 °F    
Average Humidity 63    
Maximum Humidity 100    
Minimum Humidity 26    
Precipitation  
Precipitation T in 0.14 in 1.90 in (2014)
Month to date precipitation 1.26 2.03  
Year to date precipitation 12.54 14.71  
Snow  
Snow 0.00 in 0.00 in 0.00 in ()
Month to date snowfall 0.0 0.0  
Since 1 July snowfall 21.4 32.9  
Snow Depth 0.00 in    
Sea Level Pressure  
Sea Level Pressure 29.78 in    
Wind  
Wind Speed 5 mph (West)    
Max Wind Speed 17 mph    
Max Gust Speed 24 mph    
Visibility 7 miles    
Events Rain    
T = Trace of Precipitation, MM = Missing Value Source: NWS Daily Summary

Daily Weather History Graph

Daily Weather History Graph

Search for Another Location

Airport or City:

Trip Planner

Search our weather history database for the weather conditions in past years. The results will help you decide how hot, cold, wet, or windy it might be!

Date:

Astronomy

May. 16, 2013 Rise Set
Actual Time 5:43 AM EDT 8:13 PM EDT
Civil Twilight 5:12 AM EDT 8:44 PM EDT
Nautical Twilight 4:33 AM EDT 9:23 PM EDT
Astronomical Twilight 3:50 AM EDT 10:06 PM EDT
Moon 11:15 AM EDT (5/16) 12:32 AM EDT (5/16)
Length of Visible Light 15h 31m
Length of Day
14h 29m
Waxing Crescent, 35% of the Moon is Illuminated
May 16
Waxing Crescent
May 18
First Quarter
May 25
Full
May 31
Last Quarter
Jun 8
New

Hourly Weather History & Observations

Time (EDT) Temp. Heat Index Dew Point Humidity Pressure Visibility Wind Dir Wind Speed Gust Speed Precip Events Conditions
12:51 AM 59.0 °F - 55.0 °F 87% 29.75 in 7.0 mi WNW 4.6 mph - N/A   Clear
1:51 AM 59.0 °F - 55.0 °F 87% 29.74 in 6.0 mi Calm Calm - N/A   Partly Cloudy
2:51 AM 55.9 °F - 54.0 °F 93% 29.74 in 5.0 mi SW 3.5 mph - N/A   Partly Cloudy
3:51 AM 55.9 °F - 54.0 °F 93% 29.73 in 3.0 mi Calm Calm - N/A   Clear
4:14 AM 55.4 °F - 53.6 °F 94% 29.74 in 2.5 mi NNW 4.6 mph - N/A   Clear
4:39 AM 53.6 °F - 51.8 °F 94% 29.74 in 1.5 mi Calm Calm - N/A   Clear
4:51 AM 55.0 °F - 53.1 °F 93% 29.74 in 1.5 mi Calm Calm - N/A   Clear
5:51 AM 54.0 °F - 53.1 °F 97% 29.76 in 1.8 mi Calm Calm - N/A   Clear
6:01 AM 55.4 °F - 53.6 °F 94% 29.77 in 2.5 mi WSW 3.5 mph - N/A   Partly Cloudy
6:51 AM 55.9 °F - 55.0 °F 97% 29.79 in 2.0 mi NNW 3.5 mph - N/A   Scattered Clouds
7:51 AM 60.1 °F - 57.0 °F 90% 29.81 in 2.5 mi Calm Calm - N/A   Partly Cloudy
8:01 AM 60.8 °F - 57.2 °F 88% 29.82 in 3.0 mi WSW 5.8 mph - N/A   Scattered Clouds
8:51 AM 62.1 °F - 57.0 °F 84% 29.83 in 4.0 mi SSW 5.8 mph - 0.00 in Rain Light Rain
9:51 AM 66.9 °F - 57.9 °F 73% 29.81 in 6.0 mi Variable 3.5 mph - 0.00 in   Haze
10:51 AM 71.1 °F - 57.9 °F 63% 29.81 in 7.0 mi Calm Calm - N/A   Clear
11:51 AM 73.9 °F - 57.0 °F 55% 29.80 in 9.0 mi South 5.8 mph - N/A   Clear
12:51 PM 75.9 °F - 55.0 °F 48% 29.78 in 10.0 mi SSW 3.5 mph - N/A   Clear
1:51 PM 78.1 °F - 55.9 °F 46% 29.78 in 10.0 mi WSW 6.9 mph - N/A   Clear
2:51 PM 81.0 °F 81.6 °F 60.1 °F 49% 29.76 in 10.0 mi WSW 9.2 mph - N/A   Clear
3:51 PM 82.9 °F - 46.0 °F 27% 29.74 in 10.0 mi WNW 13.8 mph 23.0 mph N/A   Clear
4:51 PM 82.9 °F - 44.1 °F 25% 29.74 in 10.0 mi West 12.7 mph 20.7 mph N/A   Clear
5:51 PM 82.0 °F - 45.0 °F 27% 29.74 in 10.0 mi NW 10.4 mph 20.7 mph N/A   Clear
6:51 PM 81.0 °F - 43.0 °F 26% 29.76 in 10.0 mi WNW 8.1 mph - N/A   Clear
7:51 PM 75.9 °F - 44.1 °F 32% 29.77 in 10.0 mi West 4.6 mph - N/A   Clear
8:51 PM 73.0 °F - 43.0 °F 34% 29.80 in 10.0 mi WNW 3.5 mph - N/A   Clear
9:51 PM 64.9 °F - 44.1 °F 47% 29.83 in 10.0 mi Calm Calm - N/A   Clear
10:51 PM 66.9 °F - 41.0 °F 39% 29.85 in 10.0 mi NW 3.5 mph - N/A   Clear
11:51 PM 64.9 °F - 41.0 °F 42% 29.88 in 10.0 mi WNW 4.6 mph - N/A   Clear